| time (UTC) | temp F | wind direction | speed MPH | gust MPH | rain 1hr in | rain 24hr in | rain mn in | humidity % | barometer mb |
| 20260510064537 | 43 | 272 | 6.0 | 8.0 | 0.00 | 0.00 | 0.00 | 71 | 1021.5 |
| 20260510063518 | 44 | 279 | 5.0 | 8.0 | 0.00 | 0.00 | 0.00 | 71 | 1021.3 |
| 20260510062518 | 43 | 255 | 4.0 | 8.0 | 0.00 | 0.00 | 0.00 | 71 | 1021.3 |
| 20260510061518 | 44 | 321 | 2.0 | 4.0 | 0.00 | 0.00 | 0.00 | 72 | 1021.5 |
| 20260510060619 | 45 | 341 | 2.0 | 5.0 | 0.00 | 0.00 | 0.00 | 69 | 1021.2 |
| 20260510055518 | 46 | 112 | 3.0 | 5.0 | 0.00 | 0.00 | 0.00 | 66 | 1021.1 |
| 20260510054518 | 47 | 114 | 4.0 | 10.0 | 0.00 | 0.00 | 0.00 | 63 | 1020.7 |
| 20260510053539 | 48 | 85 | 6.0 | 12.0 | 0.00 | 0.00 | 0.00 | 59 | 1020.0 |
| 20260510052519 | 50 | 80 | 5.0 | 10.0 | 0.00 | 0.00 | 0.00 | 53 | 1019.7 |
| 20260510051519 | 52 | 137 | 8.0 | 13.0 | 0.00 | 0.00 | 0.00 | 42 | 1019.5 |
| 20260510050516 | 51 | 112 | 6.0 | 13.0 | 0.00 | 0.00 | 0.00 | 41 | 1019.2 |
| 20260510045519 | 48 | 141 | 5.0 | 7.0 | 0.00 | 0.00 | 0.00 | 46 | 1019.3 |
| 20260510044519 | 48 | 208 | 5.0 | 6.0 | 0.00 | 0.00 | 0.00 | 51 | 1018.9 |
| 20260510043520 | 49 | 181 | 4.0 | 6.0 | 0.00 | 0.00 | 0.00 | 49 | 1018.8 |
| 20260510042520 | 50 | 145 | 5.0 | 7.0 | 0.00 | 0.00 | 0.00 | 48 | 1018.9 |
| 20260510041520 | 51 | 162 | 7.0 | 9.0 | 0.00 | 0.00 | 0.00 | 43 | 1018.9 |
| 20260510040520 | 50 | 168 | 7.0 | 9.0 | 0.00 | 0.00 | 0.00 | 45 | 1018.9 |
| 20260510035520 | 50 | 154 | 5.0 | 7.0 | 0.00 | 0.00 | 0.00 | 49 | 1018.9 |
| 20260510034521 | 51 | 151 | 5.0 | 7.0 | 0.00 | 0.00 | 0.00 | 46 | 1018.8 |
| 20260510033521 | 52 | 153 | 6.0 | 8.0 | 0.00 | 0.00 | 0.00 | 44 | 1018.7 |
| 20260510032518 | 53 | 166 | 10.0 | 15.0 | 0.00 | 0.00 | 0.00 | 40 | 1018.6 |
| 20260510031541 | 52 | 163 | 7.0 | 9.0 | 0.00 | 0.00 | 0.00 | 42 | 1018.6 |
| 20260510030521 | 53 | 167 | 5.0 | 8.0 | 0.00 | 0.00 | 0.00 | 41 | 1018.6 |
| 20260510025522 | 53 | 188 | 4.0 | 8.0 | 0.00 | 0.00 | 0.00 | 39 | 1018.4 |
| 20260510024522 | 54 | 174 | 3.0 | 5.0 | 0.00 | 0.00 | 0.00 | 36 | 1018.4 |
| 20260510023522 | 54 | 199 | 4.0 | 8.0 | 0.00 | 0.00 | 0.00 | 35 | 1018.1 |
| 20260510022522 | 53 | 264 | 4.0 | 8.0 | 0.00 | 0.00 | 0.00 | 33 | 1017.9 |
| 20260510021536 | 53 | 351 | 4.0 | 7.0 | 0.00 | 0.00 | 0.00 | 39 | 1017.6 |
| 20260510020522 | 54 | 75 | 5.0 | 6.0 | 0.00 | 0.00 | 0.00 | 37 | 1017.2 |
| 20260510015523 | 56 | 94 | 3.0 | 6.0 | 0.00 | 0.00 | 0.00 | 33 | 1017.0 |
| 20260510014524 | 57 | 106 | 6.0 | 9.0 | 0.00 | 0.00 | 0.00 | 30 | 1016.8 |
| 20260510013517 | 57 | 107 | 5.0 | 11.0 | 0.00 | 0.00 | 0.00 | 30 | 1016.7 |
| 20260510012517 | 57 | 103 | 6.0 | 14.0 | 0.00 | 0.00 | 0.00 | 30 | 1016.6 |
| 20260510011518 | 58 | 93 | 8.0 | 14.0 | 0.00 | 0.00 | 0.00 | 28 | 1016.4 |
| 20260510010518 | 59 | 90 | 7.0 | 14.0 | 0.00 | 0.00 | 0.00 | 29 | 1016.3 |
| 20260510005521 | 60 | 83 | 13.0 | 19.0 | 0.00 | 0.00 | 0.00 | 26 | 1016.2 |
| 20260510004518 | 61 | 62 | 10.0 | 14.0 | 0.00 | 0.00 | 0.00 | 23 | 1016.1 |
| 20260510003518 | 62 | 46 | 8.0 | 14.0 | 0.00 | 0.00 | 0.00 | 18 | 1016.0 |
| 20260510002518 | 61 | 70 | 13.0 | 20.0 | 0.00 | 0.00 | 0.00 | 23 | 1016.0 |
| 20260510001519 | 63 | 65 | 14.0 | 23.0 | 0.00 | 0.00 | 0.00 | 20 | 1015.7 |
| 20260510000519 | 64 | 6 | 8.0 | 14.0 | 0.00 | 0.00 | 0.00 | 18 | 1015.6 |
| 20260509235519 | 64 | 41 | 6.0 | 9.0 | 0.00 | 0.00 | 0.00 | 17 | 1015.6 |
| 20260509234519 | 65 | 20 | 8.0 | 11.0 | 0.00 | 0.00 | 0.00 | 16 | 1015.7 |
| 20260509233519 | 65 | 11 | 8.0 | 12.0 | 0.00 | 0.00 | 0.00 | 17 | 1015.7 |
| 20260509232519 | 66 | 356 | 11.0 | 17.0 | 0.00 | 0.00 | 0.00 | 16 | 1015.6 |
| 20260509231537 | 65 | 335 | 7.0 | 19.0 | 0.00 | 0.00 | 0.00 | 15 | 1015.6 |
| 20260509230517 | 66 | 334 | 9.0 | 14.0 | 0.00 | 0.00 | 0.00 | 15 | 1015.7 |
| 20260509225558 | 65 | 20 | 6.0 | 11.0 | 0.00 | 0.00 | 0.00 | 18 | 1015.7 |
| 20260509224521 | 64 | 16 | 6.0 | 9.0 | 0.00 | 0.00 | 0.00 | 17 | 1015.6 |
| 20260509223521 | 65 | 36 | 8.0 | 11.0 | 0.00 | 0.00 | 0.00 | 19 | 1015.7 |
| 20260509222518 | 65 | 340 | 7.0 | 12.0 | 0.00 | 0.00 | 0.00 | 18 | 1015.8 |
| 20260509221518 | 65 | 359 | 7.0 | 11.0 | 0.00 | 0.00 | 0.00 | 17 | 1015.8 |
| 20260509220518 | 66 | 351 | 10.0 | 17.0 | 0.00 | 0.00 | 0.00 | 15 | 1015.7 |
| 20260509215539 | 65 | 355 | 7.0 | 10.0 | 0.00 | 0.00 | 0.00 | 17 | 1015.8 |
| 20260509214539 | 65 | 356 | 7.0 | 13.0 | 0.00 | 0.00 | 0.00 | 17 | 1015.8 |
| 20260509213539 | 65 | 360 | 9.0 | 18.0 | 0.00 | 0.00 | 0.00 | 16 | 1015.9 |
| 20260509212519 | 66 | 336 | 10.0 | 19.0 | 0.00 | 0.00 | 0.00 | 15 | 1016.0 |
| 20260509211539 | 67 | 358 | 9.0 | 15.0 | 0.00 | 0.00 | 0.00 | 15 | 1016.0 |
| 20260509210519 | 68 | 354 | 7.0 | 12.0 | 0.00 | 0.00 | 0.00 | 16 | 1016.3 |
| 20260509205520 | 68 | 327 | 9.0 | 18.0 | 0.00 | 0.00 | 0.00 | 15 | 1016.3 |
| 20260509204517 | 67 | 354 | 13.0 | 22.0 | 0.00 | 0.00 | 0.00 | 14 | 1016.4 |
| 20260509203517 | 68 | 347 | 11.0 | 26.0 | 0.00 | 0.00 | 0.00 | 15 | 1016.5 |
| 20260509202520 | 67 | 345 | 13.0 | 19.0 | 0.00 | 0.00 | 0.00 | 14 | 1016.6 |
| 20260509201521 | 67 | 348 | 11.0 | 18.0 | 0.00 | 0.00 | 0.00 | 15 | 1016.6 |
| 20260509200518 | 67 | 352 | 13.0 | 24.0 | 0.00 | 0.00 | 0.00 | 14 | 1016.7 |
| 20260509195538 | 68 | 325 | 9.0 | 18.0 | 0.00 | 0.00 | 0.00 | 18 | 1016.8 |
| 20260509194558 | 67 | 358 | 10.0 | 22.0 | 0.00 | 0.00 | 0.00 | 18 | 1016.9 |
| 20260509193538 | 67 | 350 | 12.0 | 18.0 | 0.00 | 0.00 | 0.00 | 17 | 1017.0 |
| 20260509192519 | 66 | 345 | 10.0 | 16.0 | 0.00 | 0.00 | 0.00 | 17 | 1017.1 |
| 20260509191539 | 65 | 317 | 8.0 | 13.0 | 0.00 | 0.00 | 0.00 | 20 | 1017.2 |
| 20260509190518 | 65 | 360 | 5.0 | 15.0 | 0.00 | 0.00 | 0.00 | 20 | 1017.4 |
| 20260509185539 | 65 | 314 | 8.0 | 13.0 | 0.00 | 0.00 | 0.00 | 21 | 1017.4 |
| 20260509184519 | 64 | 335 | 8.0 | 12.0 | 0.00 | 0.00 | 0.00 | 21 | 1017.5 |
| 20260509183520 | 64 | 318 | 5.0 | 10.0 | 0.00 | 0.00 | 0.00 | 22 | 1017.6 |
| 20260509182516 | 62 | 347 | 6.0 | 11.0 | 0.00 | 0.00 | 0.00 | 24 | 1017.6 |
| 20260509181517 | 62 | 13 | 7.0 | 11.0 | 0.00 | 0.00 | 0.00 | 26 | 1017.8 |
| 20260509180520 | 62 | 354 | 5.0 | 9.0 | 0.00 | 0.00 | 0.00 | 26 | 1017.8 |
| 20260509175520 | 62 | 283 | 6.0 | 13.0 | 0.00 | 0.00 | 0.00 | 26 | 1017.9 |
| 20260509174521 | 62 | 24 | 7.0 | 12.0 | 0.00 | 0.00 | 0.00 | 26 | 1017.9 |
| 20260509173517 | 61 | 38 | 6.0 | 14.0 | 0.00 | 0.00 | 0.00 | 26 | 1017.8 |
| 20260509172521 | 61 | 330 | 5.0 | 9.0 | 0.00 | 0.00 | 0.00 | 25 | 1018.0 |
| 20260509171537 | 61 | 38 | 5.0 | 12.0 | 0.00 | 0.00 | 0.00 | 26 | 1018.1 |
| 20260509170538 | 61 | 30 | 7.0 | 14.0 | 0.00 | 0.00 | 0.00 | 27 | 1018.1 |
| 20260509165521 | 61 | 4 | 6.0 | 10.0 | 0.00 | 0.00 | 0.00 | 27 | 1018.3 |
| 20260509164518 | 60 | 39 | 7.0 | 12.0 | 0.00 | 0.00 | 0.00 | 26 | 1018.3 |
| 20260509163521 | 60 | 20 | 6.0 | 9.0 | 0.00 | 0.00 | 0.00 | 28 | 1018.2 |
| 20260509162518 | 60 | 43 | 5.0 | 11.0 | 0.00 | 0.00 | 0.00 | 28 | 1018.2 |
| 20260509161659 | 59 | 18 | 6.0 | 12.0 | 0.00 | 0.00 | 0.00 | 28 | 1018.1 |
| 20260509160522 | 59 | 43 | 4.0 | 8.0 | 0.00 | 0.00 | 0.00 | 30 | 1018.2 |
| 20260509155522 | 58 | 356 | 3.0 | 7.0 | 0.00 | 0.00 | 0.00 | 32 | 1018.2 |
| 20260509154516 | 57 | 22 | 3.0 | 6.0 | 0.00 | 0.00 | 0.00 | 36 | 1018.4 |
| 20260509153516 | 56 | 43 | 3.0 | 8.0 | 0.00 | 0.00 | 0.00 | 40 | 1018.5 |
| 20260509152523 | 55 | 34 | 5.0 | 9.0 | 0.00 | 0.00 | 0.00 | 42 | 1018.5 |
| 20260509151523 | 54 | 5 | 5.0 | 7.0 | 0.00 | 0.00 | 0.00 | 46 | 1018.5 |
| 20260509150523 | 53 | 21 | 4.0 | 8.0 | 0.00 | 0.00 | 0.00 | 50 | 1018.6 |
| 20260509145523 | 52 | 339 | 4.0 | 6.0 | 0.00 | 0.00 | 0.00 | 51 | 1018.6 |
| 20260509144538 | 52 | 354 | 6.0 | 8.0 | 0.00 | 0.00 | 0.00 | 49 | 1018.6 |
| 20260509143517 | 52 | 354 | 6.0 | 8.0 | 0.00 | 0.00 | 0.00 | 51 | 1018.6 |
| 20260509142518 | 53 | 354 | 5.0 | 7.0 | 0.00 | 0.00 | 0.00 | 45 | 1018.5 |
| 20260509141518 | 53 | 20 | 4.0 | 7.0 | 0.00 | 0.00 | 0.00 | 46 | 1018.4 |
| 20260509140521 | 51 | 325 | 1.0 | 3.0 | 0.00 | 0.00 | 0.00 | 52 | 1018.4 |
| 20260509135542 | 49 | 259 | 1.0 | 2.0 | 0.00 | 0.00 | 0.00 | 53 | 1018.3 |
| 20260509134522 | 48 | 164 | 2.0 | 3.0 | 0.00 | 0.00 | 0.00 | 53 | 1018.2 |
| 20260509133522 | 47 | 165 | 2.0 | 4.0 | 0.00 | 0.00 | 0.00 | 56 | 1018.3 |
| 20260509132522 | 45 | 154 | 2.0 | 3.0 | 0.00 | 0.00 | 0.00 | 59 | 1018.3 |
| 20260509131522 | 42 | 159 | 2.0 | 3.0 | 0.00 | 0.00 | 0.00 | 66 | 1018.2 |
| 20260509130522 | 42 | 300 | 1.0 | 3.0 | 0.00 | 0.00 | 0.00 | 65 | 1018.2 |
| 20260509125522 | 41 | 293 | 1.0 | 3.0 | 0.00 | 0.00 | 0.00 | 67 | 1018.1 |
| 20260509124523 | 39 | 155 | 2.0 | 4.0 | 0.00 | 0.00 | 0.00 | 66 | 1018.0 |
| 20260509123521 | 40 | 249 | 3.0 | 5.0 | 0.00 | 0.00 | 0.00 | 65 | 1017.8 |
| 20260509122521 | 39 | 82 | 4.0 | 8.0 | 0.00 | 0.00 | 0.00 | 66 | 1017.6 |
| 20260509121520 | 39 | 98 | 2.0 | 7.0 | 0.00 | 0.00 | 0.00 | 65 | 1017.5 |
| 20260509120523 | 38 | 229 | 2.0 | 3.0 | 0.00 | 0.00 | 0.00 | 71 | 1017.4 |
| 20260509115521 | 38 | 132 | 4.0 | 6.0 | 0.00 | 0.00 | 0.00 | 67 | 1017.3 |
| 20260509114524 | 37 | 197 | 3.0 | 5.0 | 0.00 | 0.00 | 0.00 | 73 | 1017.3 |
| 20260509113521 | 38 | 100 | 3.0 | 6.0 | 0.00 | 0.00 | 0.00 | 70 | 1017.3 |
| 20260509112521 | 37 | 75 | 2.0 | 7.0 | 0.00 | 0.00 | 0.00 | 75 | 1017.3 |
| 20260509111542 | 37 | 146 | 5.0 | 7.0 | 0.00 | 0.00 | 0.00 | 76 | 1017.2 |
| 20260509110521 | 37 | 143 | 4.0 | 5.0 | 0.00 | 0.00 | 0.00 | 74 | 1017.2 |
| 20260509105525 | 38 | 66 | 2.0 | 3.0 | 0.00 | 0.00 | 0.00 | 72 | 1017.1 |
| 20260509104542 | 35 | 80 | 4.0 | 6.0 | 0.00 | 0.00 | 0.00 | 78 | 1017.2 |
| 20260509103522 | 35 | 196 | 5.0 | 7.0 | 0.00 | 0.00 | 0.00 | 79 | 1017.2 |
| 20260509102522 | 35 | 150 | 5.0 | 8.0 | 0.00 | 0.00 | 0.00 | 78 | 1017.3 |
| 20260509101522 | 34 | 136 | 4.0 | 6.0 | 0.00 | 0.00 | 0.00 | 80 | 1017.2 |
| 20260509100522 | 34 | 197 | 5.0 | 7.0 | 0.00 | 0.00 | 0.00 | 82 | 1017.2 |
| 20260509095543 | 36 | 191 | 4.0 | 7.0 | 0.00 | 0.00 | 0.00 | 79 | 1017.2 |
| 20260509094523 | 36 | 181 | 3.0 | 6.0 | 0.00 | 0.00 | 0.00 | 79 | 1017.3 |
| 20260509093546 | 35 | 201 | 3.0 | 5.0 | 0.00 | 0.00 | 0.00 | 80 | 1017.4 |
| 20260509092526 | 36 | 186 | 2.0 | 3.0 | 0.00 | 0.00 | 0.00 | 81 | 1017.3 |
| 20260509091526 | 36 | 132 | 3.0 | 4.0 | 0.00 | 0.00 | 0.00 | 80 | 1017.3 |
| 20260509090527 | 36 | 116 | 2.0 | 2.0 | 0.00 | 0.00 | 0.00 | 80 | 1017.5 |
| 20260509085538 | 37 | 172 | 4.0 | 6.0 | 0.00 | 0.00 | 0.00 | 78 | 1017.5 |
| 20260509084518 | 36 | 145 | 6.0 | 9.0 | 0.00 | 0.00 | 0.00 | 79 | 1017.3 |
| 20260509083527 | 36 | 101 | 3.0 | 4.0 | 0.00 | 0.00 | 0.00 | 80 | 1017.4 |
| 20260509082527 | 35 | 233 | 3.0 | 5.0 | 0.00 | 0.00 | 0.00 | 82 | 1017.6 |
| 20260509081527 | 35 | 127 | 2.0 | 3.0 | 0.00 | 0.00 | 0.00 | 83 | 1017.7 |
| 20260509080527 | 35 | 155 | 3.0 | 4.0 | 0.00 | 0.00 | 0.00 | 82 | 1017.8 |
| 20260509075529 | 36 | 116 | 2.0 | 2.0 | 0.00 | 0.00 | 0.00 | 80 | 1017.8 |
| 20260509074528 | 37 | 99 | 2.0 | 3.0 | 0.00 | 0.00 | 0.00 | 80 | 1017.9 |
| 20260509073528 | 38 | 96 | 2.0 | 3.0 | 0.00 | 0.00 | 0.00 | 78 | 1018.0 |
| 20260509072520 | 39 | 143 | 4.0 | 6.0 | 0.00 | 0.00 | 0.00 | 74 | 1018.1 |
| 20260509071529 | 39 | 130 | 2.0 | 3.0 | 0.00 | 0.00 | 0.00 | 76 | 1018.1 |
| 20260509070520 | 39 | 142 | 4.0 | 6.0 | 0.00 | 0.00 | 0.00 | 75 | 1018.2 |
| 20260509065520 | 40 | 139 | 5.0 | 7.0 | 0.00 | 0.00 | 0.00 | 74 | 1018.3 |